Time,TemperatureF,DewpointF,PressureIn,WindDirection,WindDirectionDegrees,WindSpeedMPH,WindSpeedGustMPH,Humidity,HourlyPrecipIn,Conditions,Clouds,dailyrainin,SoftwareType,DateUTC
2013-02-23 00:03:00,33.0,31.0,29.97,SW,215,3.0,8.0,93,0.00,,,0.31,,2013-02-23 05:03:00,
2013-02-23 00:12:00,33.0,31.0,29.97,SW,215,3.0,8.0,93,0.00,,,0.31,,2013-02-23 05:12:00,
2013-02-23 00:23:00,33.0,31.0,29.96,WSW,254,3.0,7.0,93,0.00,,,0.31,,2013-02-23 05:23:00,
2013-02-23 00:33:00,33.0,31.0,29.96,WSW,244,6.0,14.0,91,0.00,,,0.31,,2013-02-23 05:33:00,
2013-02-23 00:42:00,33.0,31.0,29.96,WSW,244,6.0,14.0,91,0.00,,,0.31,,2013-02-23 05:42:00,
2013-02-23 00:52:00,33.0,30.0,29.96,SW,214,4.0,11.0,89,0.00,,,0.31,,2013-02-23 05:52:00,
2013-02-23 01:02:00,32.0,29.0,29.96,WSW,237,6.0,13.0,87,0.00,,,0.31,,2013-02-23 06:02:00,
2013-02-23 01:11:00,32.0,29.0,29.96,WSW,237,6.0,13.0,87,0.00,,,0.31,,2013-02-23 06:11:00,
2013-02-23 01:23:00,32.0,29.0,29.96,WSW,238,4.0,12.0,87,0.00,,,0.31,,2013-02-23 06:23:00,
2013-02-23 01:32:00,32.0,28.0,29.97,WSW,244,7.0,12.0,86,0.00,,,0.31,,2013-02-23 06:32:00,
2013-02-23 01:42:00,32.0,28.0,29.97,WSW,244,7.0,12.0,86,0.00,,,0.31,,2013-02-23 06:42:00,
2013-02-23 01:52:00,32.0,28.0,29.97,SW,227,5.0,10.0,85,0.00,,,0.31,,2013-02-23 06:52:00,
2013-02-23 02:01:00,32.0,28.0,29.96,WSW,237,5.0,11.0,86,0.00,,,0.31,,2013-02-23 07:01:00,
2013-02-23 02:11:00,32.0,28.0,29.96,WSW,237,5.0,11.0,86,0.00,,,0.31,,2013-02-23 07:11:00,
2013-02-23 02:21:00,32.0,28.0,29.97,WSW,242,6.0,12.0,86,0.00,,,0.31,,2013-02-23 07:21:00,
2013-02-23 02:32:00,32.0,28.0,29.96,SW,222,6.0,12.0,85,0.00,,,0.31,,2013-02-23 07:32:00,
2013-02-23 02:42:00,32.0,28.0,29.96,SW,222,6.0,12.0,85,0.00,,,0.31,,2013-02-23 07:42:00,
2013-02-23 02:52:00,31.0,26.0,29.96,WSW,257,8.0,15.0,82,0.00,,,0.31,,2013-02-23 07:52:00,
2013-02-23 03:01:00,31.0,27.0,29.97,West,268,3.0,10.0,84,0.00,,,0.31,,2013-02-23 08:01:00,
2013-02-23 03:11:00,31.0,27.0,29.97,West,268,3.0,10.0,84,0.00,,,0.31,,2013-02-23 08:11:00,
2013-02-23 03:21:00,31.0,26.0,29.97,SW,234,5.0,11.0,83,0.00,,,0.31,,2013-02-23 08:21:00,
2013-02-23 03:32:00,30.0,25.0,29.96,WSW,253,5.0,8.0,82,0.00,,,0.31,,2013-02-23 08:32:00,
2013-02-23 03:42:00,30.0,25.0,29.96,WSW,253,5.0,8.0,82,0.00,,,0.31,,2013-02-23 08:42:00,
2013-02-23 03:53:00,30.0,25.0,29.96,West,262,3.0,10.0,83,0.00,,,0.31,,2013-02-23 08:53:00,
2013-02-23 04:02:00,30.0,25.0,29.96,WSW,244,4.0,8.0,80,0.00,,,0.31,,2013-02-23 09:02:00,
2013-02-23 04:11:00,30.0,25.0,29.96,WSW,244,4.0,8.0,80,0.00,,,0.31,,2013-02-23 09:11:00,
2013-02-23 04:22:00,30.0,24.0,29.96,WSW,251,5.0,11.0,79,0.00,,,0.28,,2013-02-23 09:22:00,
2013-02-23 04:32:00,30.0,24.0,29.96,WSW,240,6.0,9.0,79,0.00,,,0.28,,2013-02-23 09:32:00,
2013-02-23 04:42:00,30.0,24.0,29.96,WSW,240,6.0,9.0,79,0.00,,,0.28,,2013-02-23 09:42:00,
2013-02-23 04:52:00,30.0,25.0,29.96,WSW,241,4.0,10.0,80,0.00,,,0.28,,2013-02-23 09:52:00,
2013-02-23 05:01:00,29.0,24.0,29.96,WSW,255,4.0,9.0,82,0.00,,,0.28,,2013-02-23 10:01:00,
2013-02-23 05:11:00,29.0,24.0,29.96,WSW,255,4.0,9.0,82,0.00,,,0.28,,2013-02-23 10:11:00,
2013-02-23 05:21:00,29.0,24.0,29.96,SW,229,5.0,12.0,82,0.00,,,0.26,,2013-02-23 10:21:00,
2013-02-23 05:32:00,29.0,24.0,29.97,SSW,211,4.0,9.0,82,0.00,,,0.26,,2013-02-23 10:32:00,
2013-02-23 05:42:00,29.0,24.0,29.97,SSW,211,4.0,9.0,82,0.00,,,0.26,,2013-02-23 10:42:00,
2013-02-23 05:52:00,29.0,25.0,29.97,WSW,252,4.0,7.0,83,0.00,,,0.26,,2013-02-23 10:52:00,
2013-02-23 06:02:00,29.0,25.0,29.97,WSW,245,4.0,11.0,83,0.00,,,0.26,,2013-02-23 11:02:00,
2013-02-23 06:11:00,29.0,25.0,29.97,WSW,245,4.0,11.0,83,0.00,,,0.26,,2013-02-23 11:11:00,
2013-02-23 06:22:00,29.0,25.0,29.97,West,260,4.0,8.0,83,0.00,,,0.22,,2013-02-23 11:22:00,
2013-02-23 06:32:00,29.0,25.0,29.98,SW,221,5.0,13.0,83,0.00,,,0.22,,2013-02-23 11:32:00,
2013-02-23 06:42:00,29.0,25.0,29.98,SW,221,5.0,13.0,83,0.00,,,0.22,,2013-02-23 11:42:00,
2013-02-23 06:53:00,28.0,24.0,29.98,WSW,245,4.0,9.0,84,0.00,,,0.22,,2013-02-23 11:53:00,
2013-02-23 07:02:00,28.0,24.0,29.98,SW,233,3.0,6.0,85,0.00,,,0.22,,2013-02-23 12:02:00,
2013-02-23 07:11:00,28.0,24.0,29.98,SW,233,3.0,6.0,85,0.00,,,0.22,,2013-02-23 12:11:00,
2013-02-23 07:21:00,28.0,24.0,29.98,SW,233,3.0,6.0,85,0.00,,,0.22,,2013-02-23 12:21:00,
2013-02-23 07:32:00,28.0,24.0,29.98,SW,223,1.0,5.0,86,0.00,,,0.12,,2013-02-23 12:32:00,
2013-02-23 07:42:00,28.0,24.0,29.98,SW,223,1.0,5.0,86,0.00,,,0.12,,2013-02-23 12:42:00,
2013-02-23 07:53:00,28.0,24.0,29.99,SW,236,3.0,7.0,85,0.00,,,0.12,,2013-02-23 12:53:00,
2013-02-23 08:02:00,28.0,24.0,29.99,SW,234,5.0,11.0,85,0.00,,,0.12,,2013-02-23 13:02:00,
2013-02-23 08:11:00,28.0,24.0,29.99,SW,234,5.0,11.0,85,0.00,,,0.12,,2013-02-23 13:11:00,
2013-02-23 08:22:00,28.0,24.0,29.99,WSW,242,5.0,8.0,84,0.00,,,0.06,,2013-02-23 13:22:00,
2013-02-23 08:32:00,28.0,24.0,30.00,WSW,238,4.0,10.0,84,0.00,,,0.06,,2013-02-23 13:32:00,
2013-02-23 08:42:00,28.0,24.0,30.00,WSW,238,4.0,10.0,84,0.00,,,0.06,,2013-02-23 13:42:00,
2013-02-23 08:52:00,29.0,25.0,30.00,WSW,241,3.0,7.0,84,0.00,,,0.06,,2013-02-23 13:52:00,
2013-02-23 09:02:00,29.0,25.0,30.00,WSW,254,4.0,11.0,83,0.00,,,0.06,,2013-02-23 14:02:00,
2013-02-23 09:11:00,29.0,25.0,30.00,WSW,254,4.0,11.0,83,0.00,,,0.06,,2013-02-23 14:11:00,
2013-02-23 09:22:00,29.0,25.0,29.99,WSW,237,4.0,11.0,83,0.00,,,0.03,,2013-02-23 14:22:00,
2013-02-23 09:32:00,29.0,24.0,29.99,SSW,212,7.0,13.0,80,0.00,,,0.03,,2013-02-23 14:32:00,
2013-02-23 09:42:00,29.0,24.0,29.99,SSW,212,7.0,13.0,80,0.00,,,0.03,,2013-02-23 14:42:00,
2013-02-23 09:52:00,29.0,24.0,29.99,SSW,212,7.0,13.0,80,0.00,,,0.03,,2013-02-23 14:52:00,
2013-02-23 10:02:00,29.0,21.0,29.98,SSW,207,7.0,14.0,73,0.00,,,0.03,,2013-02-23 15:02:00,
2013-02-23 10:11:00,29.0,21.0,29.98,SSW,207,7.0,14.0,73,0.00,,,0.03,,2013-02-23 15:11:00,
2013-02-23 10:22:00,30.0,22.0,29.98,SSW,209,7.0,15.0,72,0.00,,,0.01,,2013-02-23 15:22:00,
2013-02-23 10:32:00,30.0,22.0,29.98,SW,225,6.0,16.0,73,0.00,,,0.01,,2013-02-23 15:32:00,
2013-02-23 10:42:00,30.0,22.0,29.98,SW,225,6.0,16.0,73,0.00,,,0.01,,2013-02-23 15:42:00,
2013-02-23 10:52:00,30.0,22.0,29.97,SW,232,8.0,16.0,73,0.00,,,0.01,,2013-02-23 15:52:00,
2013-02-23 11:01:00,29.0,22.0,29.98,SW,235,3.0,14.0,76,0.00,,,0.01,,2013-02-23 16:01:00,
2013-02-23 11:11:00,29.0,22.0,29.98,SW,235,3.0,14.0,76,0.00,,,0.01,,2013-02-23 16:11:00,
2013-02-23 11:21:00,29.0,22.0,29.98,SW,235,3.0,14.0,76,0.00,,,0.01,,2013-02-23 16:21:00,
2013-02-23 11:31:00,30.0,23.0,29.98,SW,234,4.0,10.0,75,0.00,,,0.01,,2013-02-23 16:31:00,
2013-02-23 11:42:00,30.0,23.0,29.98,SW,234,4.0,10.0,75,0.00,,,0.01,,2013-02-23 16:42:00,
2013-02-23 11:52:00,30.0,22.0,29.97,WSW,240,6.0,13.0,73,0.00,,,0.01,,2013-02-23 16:52:00,
2013-02-23 12:01:00,30.0,22.0,29.97,West,263,6.0,13.0,72,0.00,,,0.01,,2013-02-23 17:01:00,
2013-02-23 12:11:00,30.0,22.0,29.98,WSW,256,5.0,16.0,72,0.00,,,0.01,,2013-02-23 17:11:00,
2013-02-23 12:22:00,30.0,22.0,29.98,WSW,256,5.0,16.0,72,0.00,,,0.01,,2013-02-23 17:22:00,
2013-02-23 12:32:00,30.0,22.0,29.98,WSW,256,5.0,16.0,72,0.00,,,0.01,,2013-02-23 17:32:00,
2013-02-23 12:42:00,30.0,22.0,29.98,WSW,256,5.0,16.0,72,0.00,,,0.01,,2013-02-23 17:42:00,
2013-02-23 12:52:00,31.0,22.0,29.97,SSW,210,6.0,13.0,70,0.00,,,0.01,,2013-02-23 17:52:00,
2013-02-23 13:02:00,31.0,22.0,29.97,SSW,213,7.0,12.0,70,0.00,,,0.01,,2013-02-23 18:02:00,
2013-02-23 13:12:00,31.0,22.0,29.97,SSW,213,7.0,12.0,70,0.00,,,0.01,,2013-02-23 18:12:00,
2013-02-23 13:22:00,31.0,22.0,29.96,SW,227,8.0,18.0,70,0.00,,,0.00,,2013-02-23 18:22:00,
2013-02-23 13:32:00,31.0,23.0,29.95,WSW,240,5.0,12.0,71,0.00,,,0.00,,2013-02-23 18:32:00,
2013-02-23 13:42:00,31.0,23.0,29.95,WSW,240,5.0,12.0,71,0.00,,,0.00,,2013-02-23 18:42:00,
2013-02-23 13:52:00,31.0,23.0,29.95,WSW,240,5.0,12.0,71,0.00,,,0.00,,2013-02-23 18:52:00,
2013-02-23 14:01:00,31.0,24.0,29.95,SW,220,5.0,17.0,74,0.00,,,0.00,,2013-02-23 19:01:00,
2013-02-23 14:11:00,31.0,24.0,29.95,SW,220,5.0,17.0,74,0.00,,,0.00,,2013-02-23 19:11:00,
2013-02-23 14:21:00,31.0,24.0,29.95,WSW,249,6.0,14.0,75,0.00,,,0.00,,2013-02-23 19:21:00,
2013-02-23 14:32:00,30.0,23.0,29.95,SW,219,4.0,11.0,76,0.00,,,0.00,,2013-02-23 19:32:00,
2013-02-23 14:41:00,30.0,23.0,29.95,SW,219,4.0,11.0,76,0.00,,,0.00,,2013-02-23 19:41:00,
2013-02-23 14:52:00,30.0,23.0,29.95,West,262,8.0,15.0,75,0.00,,,0.00,,2013-02-23 19:52:00,
2013-02-23 15:01:00,30.0,23.0,29.95,West,262,8.0,15.0,75,0.00,,,0.00,,2013-02-23 20:01:00,
2013-02-23 15:11:00,30.0,23.0,29.95,West,262,8.0,15.0,75,0.00,,,0.00,,2013-02-23 20:11:00,
2013-02-23 15:21:00,31.0,24.0,29.94,West,263,6.0,12.0,74,0.00,,,0.00,,2013-02-23 20:21:00,
2013-02-23 15:32:00,31.0,24.0,29.93,SSW,194,4.0,9.0,75,0.00,,,0.00,,2013-02-23 20:32:00,
2013-02-23 15:42:00,31.0,24.0,29.93,SSW,194,4.0,9.0,75,0.00,,,0.00,,2013-02-23 20:42:00,
2013-02-23 15:53:00,31.0,24.0,29.93,SSW,212,4.0,9.0,74,0.00,,,0.00,,2013-02-23 20:53:00,
2013-02-23 16:01:00,31.0,23.0,29.94,SW,222,5.0,12.0,73,0.00,,,0.00,,2013-02-23 21:01:00,
2013-02-23 16:11:00,31.0,24.0,29.95,SW,221,5.0,9.0,74,0.00,,,0.00,,2013-02-23 21:11:00,
2013-02-23 16:22:00,31.0,24.0,29.95,SW,221,5.0,9.0,74,0.00,,,0.00,,2013-02-23 21:22:00,
2013-02-23 16:32:00,31.0,24.0,29.95,SW,221,5.0,9.0,74,0.00,,,0.00,,2013-02-23 21:32:00,
2013-02-23 16:42:00,31.0,24.0,29.95,SW,221,5.0,9.0,74,0.00,,,0.00,,2013-02-23 21:42:00,
2013-02-23 16:52:00,31.0,24.0,29.95,SW,221,5.0,9.0,74,0.00,,,0.00,,2013-02-23 21:52:00,
2013-02-23 17:02:00,30.0,22.0,29.95,WSW,248,4.0,13.0,73,0.00,,,0.00,,2013-02-23 22:02:00,
2013-02-23 17:11:00,31.0,23.0,29.95,WSW,257,3.0,12.0,73,0.00,,,0.00,,2013-02-23 22:11:00,
2013-02-23 17:22:00,31.0,23.0,29.95,WSW,257,3.0,12.0,73,0.00,,,0.00,,2013-02-23 22:22:00,
2013-02-23 17:32:00,30.0,23.0,29.95,WSW,252,3.0,7.0,74,0.00,,,0.00,,2013-02-23 22:32:00,
2013-02-23 17:42:00,30.0,23.0,29.95,WSW,252,3.0,7.0,74,0.00,,,0.00,,2013-02-23 22:42:00,
2013-02-23 17:52:00,30.0,22.0,29.96,SW,236,3.0,9.0,73,0.00,,,0.00,,2013-02-23 22:52:00,
2013-02-23 18:01:00,30.0,22.0,29.96,SW,236,3.0,10.0,73,0.00,,,0.00,,2013-02-23 23:01:00,
2013-02-23 18:11:00,30.0,22.0,29.96,SW,236,3.0,10.0,73,0.00,,,0.00,,2013-02-23 23:11:00,
2013-02-23 18:22:00,30.0,22.0,29.96,SW,236,3.0,10.0,73,0.00,,,0.00,,2013-02-23 23:22:00,
2013-02-23 18:32:00,30.0,23.0,29.96,SW,231,3.0,10.0,75,0.00,,,0.00,,2013-02-23 23:32:00,
2013-02-23 18:42:00,30.0,23.0,29.96,SW,231,3.0,10.0,75,0.00,,,0.00,,2013-02-23 23:42:00,
2013-02-23 18:52:00,29.0,22.0,29.96,SW,227,4.0,8.0,75,0.00,,,0.00,,2013-02-23 23:52:00,
2013-02-23 19:02:00,29.0,22.0,29.96,SW,227,4.0,8.0,75,0.00,,,0.00,,2013-02-24 00:02:00,
2013-02-23 19:11:00,29.0,22.0,29.96,SW,227,4.0,8.0,75,0.00,,,0.00,,2013-02-24 00:11:00,
2013-02-23 19:22:00,29.0,22.0,29.97,SW,235,3.0,10.0,75,0.00,,,0.00,,2013-02-24 00:22:00,
2013-02-23 19:32:00,29.0,22.0,29.97,SW,235,3.0,10.0,75,0.00,,,0.00,,2013-02-24 00:32:00,
2013-02-23 19:42:00,29.0,22.0,29.97,SW,235,3.0,10.0,75,0.00,,,0.00,,2013-02-24 00:42:00,
2013-02-23 19:52:00,29.0,22.0,29.97,SW,236,3.0,7.0,75,0.00,,,0.00,,2013-02-24 00:52:00,
2013-02-23 20:01:00,29.0,22.0,29.97,SW,236,3.0,7.0,75,0.00,,,0.00,,2013-02-24 01:01:00,
2013-02-23 20:11:00,29.0,22.0,29.97,SW,236,3.0,7.0,75,0.00,,,0.00,,2013-02-24 01:11:00,
2013-02-23 20:22:00,29.0,23.0,29.98,WSW,242,4.0,8.0,78,0.00,,,0.00,,2013-02-24 01:22:00,
2013-02-23 20:32:00,29.0,23.0,29.98,WSW,240,2.0,6.0,78,0.00,,,0.00,,2013-02-24 01:32:00,
2013-02-23 20:42:00,29.0,23.0,29.98,WSW,240,2.0,6.0,78,0.00,,,0.00,,2013-02-24 01:42:00,
2013-02-23 20:52:00,29.0,23.0,29.98,WSW,250,3.0,7.0,78,0.00,,,0.00,,2013-02-24 01:52:00,
2013-02-23 21:01:00,29.0,23.0,29.98,West,259,3.0,8.0,78,0.00,,,0.00,,2013-02-24 02:01:00,
2013-02-23 21:11:00,29.0,23.0,29.98,West,259,3.0,8.0,78,0.00,,,0.00,,2013-02-24 02:11:00,
2013-02-23 21:22:00,29.0,23.0,29.98,West,259,3.0,8.0,78,0.00,,,0.00,,2013-02-24 02:22:00,
2013-02-23 21:32:00,28.0,22.0,29.98,WSW,258,4.0,9.0,77,0.00,,,0.00,,2013-02-24 02:32:00,
2013-02-23 21:42:00,28.0,22.0,29.98,WSW,258,4.0,9.0,77,0.00,,,0.00,,2013-02-24 02:42:00,
2013-02-23 21:52:00,28.0,22.0,29.98,SW,221,2.0,7.0,78,0.00,,,0.00,,2013-02-24 02:52:00,
2013-02-23 22:02:00,28.0,22.0,29.98,WSW,240,3.0,6.0,79,0.00,,,0.00,,2013-02-24 03:02:00,
2013-02-23 22:11:00,28.0,22.0,29.98,WSW,240,3.0,6.0,79,0.00,,,0.00,,2013-02-24 03:11:00,
2013-02-23 22:22:00,28.0,22.0,29.98,WSW,240,3.0,6.0,79,0.00,,,0.00,,2013-02-24 03:22:00,
2013-02-23 22:32:00,28.0,23.0,29.98,WSW,248,1.0,5.0,80,0.00,,,0.00,,2013-02-24 03:32:00,
2013-02-23 22:42:00,28.0,23.0,29.98,WSW,248,1.0,5.0,80,0.00,,,0.00,,2013-02-24 03:42:00,
2013-02-23 22:52:00,28.0,22.0,29.98,WNW,294,3.0,7.0,79,0.00,,,0.00,,2013-02-24 03:52:00,
2013-02-23 23:02:00,28.0,22.0,29.98,WNW,294,3.0,7.0,79,0.00,,,0.00,,2013-02-24 04:02:00,
2013-02-23 23:11:00,28.0,22.0,29.98,WNW,294,3.0,7.0,79,0.00,,,0.00,,2013-02-24 04:11:00,
2013-02-23 23:21:00,27.0,22.0,29.98,West,265,4.0,10.0,80,0.00,,,0.00,,2013-02-24 04:21:00,
2013-02-23 23:32:00,27.0,22.0,29.98,West,265,3.0,11.0,80,0.00,,,0.00,,2013-02-24 04:32:00,
2013-02-23 23:42:00,27.0,22.0,29.98,West,265,3.0,11.0,80,0.00,,,0.00,,2013-02-24 04:42:00,
2013-02-23 23:52:00,27.0,21.0,29.98,West,270,4.0,11.0,79,0.00,,,0.00,,2013-02-24 04:52:00,